Flag for Pakistan Weather past 2 weeks in Karachi, Sindh, Pakistan

Now
79 °F

Clear.


Feels Like: 78 °F
Forecast: 56 / 77 °F
Wind: 8 mph from Northeast

Location: Karachi Airport

Current Time: Dec 29, 2014 at 4:03:24 PM

Latest Report: Dec 29, 2014 at 3:25 PM


Visibility: 4 mi

Pressure: 29.92 "Hg

Humidity: 16%

Dew point: 28 °F

Location of KarachiLocation

Historic Weather in Karachi — Graph

°F

Karachi temperature yesterday

Maximum temperature yesterday: 79 °F (at 12:55 PM)
Minimum temperature yesterday: 54 °F (at 6:25 AM)
Average temperature yesterday: 66 °F

Past Weeks' High & Low Weather Summary

 TemperatureHumidityPressure
High82 °F (Dec 25, 4:25 PM)88% (Dec 22, 2:25 AM)30.21 "Hg (Dec 22, 2:25 AM)
Low48 °F (Dec 15, 6:55 AM)11% (Dec 29, 1:55 PM)29.86 "Hg (Dec 22, 2:55 PM)
Average66 °F40%30.07 "Hg
* Reported Dec 14 2:25 PM — Dec 29 2:55 PM, Karachi, Weather by CustomWeather, © 2014

Note: Actual official high and low records may vary slightly from our data, if they occured in-between our weather recording intervals... More about our weather records

Advertising

Karachi weather history for previous 24 hours

 ConditionsComfort  
Time TempWeatherWind HumidityBarometerVisibility
2:55 PM
Dec 29
77 °FClear.9 mph17%29.95 "Hg4 mi
2:25 PM77 °FHaze.10 mph18%29.95 "Hg3 mi
1:55 PM77 °FHaze.12 mph11%29.95 "Hg3 mi
1:25 PM77 °FHaze.5 mph18%29.98 "Hg3 mi
12:55 PM77 °FHaze.12 mph18%29.98 "Hg3 mi
12:25 PM75 °FHaze.6 mph19%30.01 "Hg3 mi
11:55 AM75 °FHaze.14 mph21%30.04 "Hg2 mi
11:25 AM73 °FHaze.8 mph23%30.04 "Hg2 mi
10:55 AM70 °FHaze.8 mph29%30.07 "Hg2 mi
10:25 AM68 °FHaze.9 mph30%30.09 "Hg2 mi
9:55 AM66 °FHaze.5 mph32%30.07 "Hg2 mi
9:25 AM61 °FHaze.6 mph39%30.07 "Hg2 mi
8:55 AM57 °FHaze.5 mph41%30.07 "Hg2 mi
8:25 AM55 °FHaze.6 mph44%30.07 "Hg3 mi
7:55 AM54 °FHaze.6 mph47%30.07 "Hg3 mi
7:25 AM54 °FHaze.5 mph47%30.04 "Hg3 mi
6:55 AM52 °FClear.5 mph50%30.04 "Hg4 mi
6:25 AM52 °FClear.5 mph50%30.04 "Hg4 mi
5:55 AM54 °FClear.5 mph47%30.01 "Hg4 mi
4:55 AM55 °FClear.5 mph44%30.01 "Hg4 mi
4:25 AM57 °FClear.6 mph39%30.01 "Hg4 mi
3:55 AM57 °FClear.5 mph39%30.01 "Hg4 mi
3:25 AM57 °FClear.5 mph41%30.04 "Hg4 mi
2:55 AM57 °FClear.5 mph41%30.04 "Hg4 mi
2:25 AM59 °FClear.6 mph39%30.04 "Hg4 mi
1:55 AM59 °FClear.6 mph39%30.04 "Hg4 mi
1:25 AM61 °FClear.7 mph39%30.04 "Hg4 mi
12:55 AM61 °FClear.5 mph39%30.04 "Hg4 mi
12:25 AM61 °FClear.6 mph42%30.04 "Hg4 mi
11:55 PM
Dec 28
63 °FClear.6 mph39%30.04 "Hg4 mi
11:25 PM63 °FClear.6 mph39%30.07 "Hg4 mi
10:55 PM63 °FClear.6 mph39%30.07 "Hg4 mi
10:25 PM63 °FClear.6 mph45%30.07 "Hg4 mi
9:55 PM63 °FClear.8 mph56%30.07 "Hg4 mi
9:25 PM63 °FClear.9 mph45%30.07 "Hg4 mi
8:55 PM66 °FClear.No wind37%30.07 "Hg4 mi
8:25 PM66 °FClear.No wind37%30.07 "Hg4 mi
7:55 PM68 °FClear.5 mph35%30.04 "Hg4 mi
7:25 PM70 °FClear.No wind33%30.04 "Hg4 mi
6:55 PM70 °FClear.5 mph33%30.04 "Hg4 mi
6:25 PM72 °FClear.7 mph31%30.01 "Hg4 mi
5:55 PM73 °FClear.8 mph29%30.01 "Hg4 mi
5:25 PM75 °FClear.5 mph27%30.01 "Hg4 mi
4:55 PM75 °FClear.5 mph29%30.01 "Hg4 mi
4:25 PM77 °FClear.5 mph26%30.01 "Hg4 mi
Weather by CustomWeather, © 2014

See weather overviewHow to use our weather pages